Weather Roundup
Issued by NWS

Home | Current Version | Previous Version | Text Only | Print | Product List | Glossary On
Versions: 1 2 3 4 5 6 7 8 9 10 11 12 13 14 15 16 17 18 19 20 21 22 23 24 25 26 27 28 29 30 31 32 33 34 35 36 37 38 39 40 41 42 43 44 45 46 47 48 49 50
000
NZUS93 KARX 170059
HRRWXR

CURRENT HOURLY OBSERVATIONS ACROSS
MUCH OF THE UPPER MISSISSIPPI VALLEY
NATIONAL WEATHER SERVICE LA CROSSE WI
700 PM CST THU NOV 16 2017


...SOUTHEAST MINNESOTA...


CITY           SKY/WX    TMP DP  RH WIND       PRES   REMARKS
ROCHESTER      CLOUDY    31  27  85 SE15      30.06F WCI  20
ROCHESTER/MAYO FAIR      32  27  80 SE13G20   30.08S WCI  22
WINONA         CLOUDY    34  27  75 SE10G17   30.12F WCI  26
AUSTIN         CLOUDY    30  27  86 S9        30.06F WCI  22
ALBERT LEA     CLOUDY    30  25  80 SE20G25   30.03F WCI  18
DODGE CENTER   CLOUDY    30  27  86 SE14      30.06S WCI  20
PRESTON        CLOUDY    31  26  80 SE12G18   30.09F WCI  22
OWATONNA       PTCLDY    32  27  80 SE16      30.04F WCI  21
FARIBAULT      CLOUDY    32  27  80 SE13G20   30.04F WCI  22
$$

...ELSEWHERE IN MINNESOTA...


CITY           SKY/WX    TMP DP  RH WIND       PRES   REMARKS
MINNEAPOLIS    CLOUDY    33  27  78 SE15      30.06F WCI  23
INTNL FALLS    CLOUDY    26  20  77 SE17G25   29.97F WCI  13
DULUTH         CLOUDY    26  23  88 SE15      30.05S WCI  14
RED WING       CLOUDY    34  23  64 SE9       30.09F WCI  26
REDWOOD FALLS  CLOUDY    31  25  78 SE21      29.92F WCI  18
MANKATO        CLOUDY    31  27  85 SE16      30.00F WCI  20
WORTHINGTON    CLOUDY    29  25  85 SE22G29   29.85F WCI  15
FAIRMONT       CLOUDY    31  27  85 SE21      29.98F WCI  18
$$

...SOUTHWEST WISCONSIN...


CITY           SKY/WX    TMP DP  RH WIND       PRES   REMARKS
LA CROSSE      CLOUDY    36  26  67 SE12      30.14F WCI  28
PRAIRIE DU CHI CLOUDY    35  27  71 E9        30.17F WCI  28
BOSCOBEL       PTCLDY    36  27  69 E5        30.18F WCI  32
LONE ROCK      CLOUDY    34  27  75 SE8       30.21S WCI  27
PLATTEVILLE    CLOUDY    33  30  87 SE13      30.18F WCI  24
FORT MC COY    CLOUDY    29  25  83 CALM      30.18F
CAMP DOUGLAS   CLOUDY    30  23  74 SE7       30.18S WCI  23
MAUSTON-NEW LI PTCLDY    32  25  75 SE5       30.18F WCI  27
VIROQUA        MOCLDY    32  29  90 SE12      30.13F WCI  23
WIS DELLS      PTCLDY    31  25  78 E7        30.18F WCI  24
$$

...ELSEWHERE IN WISCONSIN...


CITY           SKY/WX    TMP DP  RH WIND       PRES   REMARKS
MILWAUKEE      CLOUDY    37  29  72 E3        30.25F
MADISON        MOCLDY    31  25  78 SE7       30.21F WCI  24
GREEN BAY      CLOUDY    33  25  72 SE8       30.26S WCI  26
EAU CLAIRE     NOT AVBL
BLACK RVR FLS  FAIR      31  23  70 CALM      30.16F
MEDFORD        CLOUDY    28  23  81 E8        30.13F WCI  20
WAUSAU         CLOUDY    29  23  78 E12       30.16F WCI  19
WIS RAPIDS     CLOUDY    32  24  72 SE9       30.18F WCI  24
MARSHFIELD     CLOUDY    30  23  75 SE7       30.13F WCI  23
RICE LAKE      CLOUDY    31  25  77 SE13      30.10F WCI  21
$$

...NORTHEAST IOWA...


CITY           SKY/WX    TMP DP  RH WIND       PRES   REMARKS
WATERLOO       CLOUDY    34  27  75 SE12      30.12F WCI  25
DUBUQUE        CLOUDY    32  26  78 SE10      30.19S WCI  24
DECORAH        CLOUDY    34  28  80 SE10      30.11S WCI  26
MASON CITY     CLOUDY    31  26  82 SE16      30.06F WCI  20
CHARLES CITY   CLOUDY    32  30  93 SE12      30.10F WCI  23
OELWEIN        CLOUDY    34  32  93 SE12      30.14F WCI  25
$$

...ELSEWHERE IN IOWA...


CITY           SKY/WX    TMP DP  RH WIND       PRES   REMARKS
DES MOINES     PTCLDY    36  28  73 E12       30.07F WCI  28
IOWA CITY      CLOUDY    33  28  81 S7        30.21R WCI  27
FORT DODGE     CLOUDY    30  27  88 SE12G21   30.03F WCI  20
MARSHALLTOWN   CLOUDY    32  28  85 SE14      30.11F WCI  22
CEDAR RAPIDS   PTCLDY    33  28  81 SE8       30.17R WCI  26
$$

...NORTHERN ILLINOIS...


CITY           SKY/WX    TMP DP  RH WIND       PRES   REMARKS
CHICAGO-OHARE  CLOUDY    37  27  67 E9        30.24F WCI  30
CHICAGO-MIDWAY NOT AVBL
MOLINE         CLOUDY    31  26  82 E7        30.21F WCI  24
ROCKFORD       CLOUDY    34  27  75 SE7       30.26S WCI  28
PEORIA         MOCLDY    34  28  79 SE8       30.24F WCI  27
$$

NOTE: "FAIR" INDICATES FEW OR NO CLOUDS BELOW 12,000 FEET WITH NO
SIGNIFICANT WEATHER AND/OR OBSTRUCTIONS TO VISIBILITY. WIND
SPEEDS ARE IN MILES-PER-HOUR.




USA.gov is the U.S. government's official web portal to all federal, state and local government web resources and services.